Hlavní strana
METAR-TAF:

METAR-TAF

Letiště :

Bolton Field

Columbus, Ohio, Spojené státy americké

zeměpisná šířka: 39-54-03N, zeměpisná délka: 083-08-14W, výška: 276 m

Aktuální stav počasí

Zpráva byla vytvořena před 10 minutami, v 05:00 UTC
Bezvětří
Teplota 0°C
Vlhkost vzduchu 80%
Tlak 1027 hPa
Viditelnost: 16.1 km
Jasno

METAR: KTZR 200500Z AUTO 00000KT 10SM CLR 00/M03 A3032 RMK AO2 T00001029

Čas: 01:10 (05:10 UTC)


TAF: chybějící

Stav a předpovědi počasí z více než 4 000 letišť (zprávy METAR a TAF).

Červené a žluté tečky na mapě představují dostupné meteorologické stanice.

Když kurzor umístíte na tečku, zobrazí se název stanice.

Pak kliknutím zobrazíte stav a předpověď počasí.

Chcete-li změnit mapu, kliknutím na zelené tlačítko se znaménkem +mapu přiblížíte, kliknutím na zelené tlačítko se znaménkem – mapu oddálíte a kliknutím na zelené šipky přejdete na sousední mapy.


METAR-TAF: